Location: �terpigny
(49.8910°N, 2.9249°E)
Time: 11:03:59
(UTC+00:00)

Cosmos 2360 Rocket - Pass Details

Date: 24 October 2021
Orbit: 832 x 846 km, 71.0° (Epoch: 01 December)

Event Time Altitude Azimuth Distance (km) Brightness Sun altitude
Rises 19:58:08 0° 234° (SW) 3,384 5.7 -32.3°
Reaches altitude 10° 20:00:45 10° 243° (WSW) 2,455 5.0 -32.6°
Maximum altitude 20:05:58 38° 310° (NW) 1,272 3.4 -33.4°
Enters shadow 20:08:03 28° 353° (N) 1,525 3.7 -33.7°
